Flag for India Weather past 2 weeks in Faridkot, Punjab, India

Now
91 °F

Passing clouds.


Feels Like: 89 °F
Forecast: 64 / 96 °F
Wind: 9 mph from North

Location: Lahore Airport

Current Time: Mar 27, 2015 at 4:42:03 PM

Latest Report: Mar 27, 2015 at 3:55 PM


Visibility: 6 mi

Pressure: 29.92 "Hg

Humidity: 26%

Dew point: 52 °F

Location of FaridkotLocation

Historic Weather in Faridkot — Graph

°F

Faridkot temperature yesterday

Maximum temperature yesterday: 91 °F (at 1:25 PM)
Minimum temperature yesterday: 64 °F (at 6:25 AM)
Average temperature yesterday: 79 °F

Past Weeks' High & Low Weather Summary

 TemperatureHumidityPressure
High93 °F (Mar 23, 3:55 PM)100% (Mar 15, 8:55 PM)30.15 "Hg (Mar 15, 8:55 PM)
Low54 °F (Mar 13, 6:25 AM)23% (Mar 23, 3:55 PM)29.80 "Hg (Mar 23, 4:25 PM)
Average72 °F59%29.98 "Hg
* Reported Mar 12 2:55 PM — Mar 27 3:25 PM, Faridkot, Weather by CustomWeather, © 2015

Note: Actual official high and low records may vary slightly from our data, if they occured in-between our weather recording intervals... More about our weather records

Advertising

Faridkot weather history for previous 24 hours

 ConditionsComfort  
Time TempWeatherWind HumidityBarometerVisibility
3:25 PM
Fri, Mar 27
91 °FPassing clouds.7 mph26%29.95 "Hg6 mi
2:55 PM91 °FPassing clouds.8 mph26%29.95 "Hg6 mi
2:25 PM91 °FPassing clouds.8 mph26%29.98 "Hg6 mi
1:55 PM90 °FPassing clouds.7 mph29%29.98 "Hg6 mi
1:25 PM90 °FPassing clouds.9 mph29%29.98 "Hg6 mi
12:55 PM90 °FClear.8 mph31%30.01 "Hg6 mi
12:25 PM88 °FClear.9 mph33%30.01 "Hg6 mi
11:55 AM86 °FClear.8 mph33%30.01 "Hg5 mi
11:25 AM84 °FClear.9 mph35%30.04 "Hg4 mi
10:55 AM82 °FClear.8 mph42%30.04 "Hg4 mi
9:55 AM79 °FClear.3 mph54%30.04 "Hg3 mi
8:55 AM73 °FClear.3 mph57%30.04 "Hg3 mi
8:30 AM70 °FClear.No wind64%30.04 "Hg3 mi
8:00 AM68 °FClear.No wind69%30.01 "Hg2 mi
7:30 AM68 °FClear.No wind69%30.01 "Hg2 mi
7:00 AM66 °FClear.No wind78%30.01 "Hg2 mi
6:30 AM66 °FClear.No wind78%30.01 "Hg2 mi
5:30 AM66 °FClear.3 mph78%29.98 "Hg2 mi
4:55 AM68 °FClear.5 mph73%29.98 "Hg2 mi
4:25 AM68 °FClear.5 mph73%29.98 "Hg2 mi
3:55 AM70 °FClear.5 mph69%29.98 "Hg2 mi
3:25 AM70 °FClear.5 mph69%30.01 "Hg2 mi
2:55 AM72 °FClear.5 mph65%30.01 "Hg2 mi
2:25 AM72 °FClear.No wind65%30.01 "Hg2 mi
1:55 AM73 °FClear.5 mph61%30.01 "Hg2 mi
1:25 AM73 °FClear.7 mph61%30.01 "Hg2 mi
12:55 AM75 °FClear.5 mph57%30.01 "Hg2 mi
12:25 AM75 °FClear.No wind57%30.01 "Hg2 mi
11:55 PM
Thu, Mar 26
75 °FPassing clouds.No wind61%30.01 "Hg2 mi
11:25 PM77 °FHaze.3 mph54%30.01 "Hg2 mi
10:55 PM77 °FHaze.5 mph54%30.01 "Hg2 mi
10:25 PM79 °FHaze.No wind48%30.01 "Hg2 mi
9:55 PM81 °FPassing clouds.3 mph45%30.01 "Hg3 mi
9:25 PM81 °FPassing clouds.5 mph45%30.01 "Hg3 mi
8:55 PM82 °FPassing clouds.No wind42%29.98 "Hg3 mi
8:25 PM82 °FPassing clouds.No wind42%29.98 "Hg3 mi
7:55 PM82 °FPassing clouds.No wind42%29.98 "Hg3 mi
7:25 PM84 °FPassing clouds.No wind40%29.95 "Hg3 mi
6:55 PM84 °FPassing clouds.3 mph37%29.95 "Hg4 mi
6:25 PM86 °FScattered clouds.5 mph35%29.98 "Hg4 mi
5:55 PM86 °FScattered clouds.7 mph31%29.98 "Hg4 mi
5:25 PM88 °FScattered clouds.6 mph29%29.95 "Hg4 mi
4:25 PM90 °FScattered clouds.6 mph29%29.95 "Hg5 mi
4:05 PM91 °FScattered clouds.5 mph24%29.95 "Hg5 mi
Weather by CustomWeather, © 2015

See weather overviewHow to use our weather pages